Skip Page Navigation
NASA JPL Caltech
NASA Logo - Jet Propulsion Laboratory + View the NASA Portal
+ Center for Near-Earth Object Studies
JPL Home Earth Solar System Stars & Galaxies Technology
JPL Solar System Dynamics
BODIES ORBITS EPHEMERIDES TOOLS PHYSICAL DATA DISCOVERY FAQ SITE MAP
JPL Small-Body Database Browser
Search: [ help ]  
95049 (2002 AQ41)
Classification: Main-belt Asteroid          SPK-ID: 2095049
Ephemeris | Orbit Diagram | Orbital Elements | Mission Design | Physical Parameters | Discovery Circumstances ]

[ hide orbit diagram ]

For accurate long-term ephemerides, please instead use our Horizons system.This orbit viewer was implemented using two-body methods, and hence should not be used for determining accurate long-term trajectories (over several years or decades) or planetary encounter circumstances.


Orbital Elements at Epoch 2459396.5 (2021-Jul-01.0) TDB
Reference: JPL 22 (heliocentric ecliptic J2000)
 Element Value Uncertainty (1-sigma)   Units 
e .06539860089772159 4.4591e-08  
a 2.70401599304081 1.523e-08 au
q 2.527177130290878 1.2191e-07 au
i 3.791839476534178 4.6222e-06 deg
node 291.6968640170052 7.8021e-05 deg
peri 284.1108793477356 8.7378e-05 deg
M 53.71204422066926 3.9003e-05 deg
tp 2459154.184334696493
(2020-Oct-31.68433470)
0.00017605 TDB
period 1624.098296294101
4.45
1.3721e-05
3.757e-08
d
yr
n .2216614602831953 1.8727e-09 deg/d
Q 2.880854855790743 1.6225e-08 au
  Orbit Determination Parameters
   # obs. used (total)      586  
   data-arc span      9983 days (27.33 yr)  
   first obs. used      1993-01-21  
   last obs. used      2020-05-22  
   planetary ephem.      DE441  
   SB-pert. ephem.      SB441-N16  
   condition code      0  
   norm. resid. RMS      .57017  
   source      ORB  
   producer      Otto Matic  
   solution date      2021-Jul-09 10:54:50  

Additional Information
 Earth MOID = 1.52373 au 
 Jupiter MOID = 2.1067 au 
 T_jup = 3.360 
[ hide covariance matrix ]
Orbital Elements at Epoch 2457354.5 (2015-Nov-28.0) TDB
Reference: JPL 22 (heliocentric ecliptic J2000)
 Element Value Uncertainty (1-sigma)   Units 
e .06655861995301789 4.4653e-08  
q 2.525240620864351 1.2264e-07 au
tp 2457525.451052842508
(2016-May-16.95105284)
0.00017326 TDB
node 291.7557855107083 7.7993e-05 deg
peri 283.0522227108421 8.6976e-05 deg
i 3.792096178274483 4.6234e-06 deg
  Orbit Determination Parameters
   # obs. used (total)      586  
   data-arc span      9983 days (27.33 yr)  
   first obs. used      1993-01-21  
   last obs. used      2020-05-22  
   planetary ephem.      DE441  
   SB-pert. ephem.      SB441-N16  
   condition code      0  
   norm. resid. RMS      .57017  
   source      ORB  
   producer      Otto Matic  
   solution date      2021-Jul-09 10:54:50  

Additional Information
 Jupiter MOID = 2.1067 au 
 T_jup = 3.360 
Orbit Covariance (6×6)
  e q tp node peri i
e 1.99391833373754E-15 -5.438830325387787E-15 -2.688098358815835E-12 1.725243177140946E-15 -5.457857443988019E-13 -1.389139741443962E-15
q -5.438830325387787E-15 1.504128753693412E-14 7.043229620525752E-12 -5.074569339814825E-15 1.419692810417325E-12 3.872690622716087E-15
tp -2.688098358815835E-12 7.043229620525752E-12 3.001767548775098E-8 -2.563664578777325E-12 6.703090135305277E-9 4.6860099242293E-12
node 1.725243177140946E-15 -5.074569339814825E-15 -2.563664578777325E-12 6.082972772480935E-9 -6.0696939503382E-9 1.311596055674466E-10
peri -5.457857443988019E-13 1.419692810417325E-12 6.703090135305277E-9 -6.0696939503382E-9 7.564778368438223E-9 -1.298526262089927E-10
i -1.389139741443962E-15 3.872690622716087E-15 4.6860099242293E-12 1.311596055674466E-10 -1.298526262089927E-10 2.137599563311189E-11

Ephemeris | Orbit Diagram | Orbital Elements | Mission Design | Physical Parameters | Discovery Circumstances ]

Physical Parameter Table
Parameter Symbol Value Units Sigma Reference Notes
absolute magnitude H 15.64   n/a E2021B10  

95049 (2002 AQ41)          Discovered 2002-Jan-09 by LINEAR at Socorro
Reference: 20041028/Numbers.arcLast Updated: 2004-10-29
Ephemeris | Orbit Diagram | Orbital Elements | Mission Design | Physical Parameters | Discovery Circumstances ]
ABOUT SSD CREDITS/AWARDS PRIVACY/COPYRIGHT GLOSSARY LINKS
FirstGov 2021-Aug-04 17:14 UT
(server date/time)  
NASA Home Page
Site Manager:   Ryan S. Park
Webmaster  Alan B. Chamberlin